| time (UTC) | temp F | wind direction | speed knots | gust knots | rain 1hr in | rain 24hr in | rain mn in | humidity % | barometer mb |
| 20260509201057 | 69 | 97 | 0.0 | 0.0 | 0.00 | 0.00 | 0.00 | 49 | 1009.4 |
| 20260509200556 | 69 | 98 | 0.0 | 0.0 | 0.00 | 0.00 | 0.00 | 49 | 1009.5 |
| 20260509200053 | 69 | 176 | 0.0 | 0.0 | 0.00 | 0.00 | 0.00 | 51 | 1009.3 |
| 20260509195548 | 69 | 160 | 0.0 | 0.0 | 0.00 | 0.00 | 0.00 | 53 | 1009.4 |
| 20260509195043 | 69 | 153 | 0.0 | 0.9 | 0.00 | 0.00 | 0.00 | 51 | 1009.4 |
| 20260509194538 | 69 | 212 | 1.7 | 3.5 | 0.00 | 0.00 | 0.00 | 51 | 1009.3 |
| 20260509194036 | 69 | 63 | 0.9 | 0.9 | 0.00 | 0.00 | 0.00 | 50 | 1009.5 |
| 20260509193536 | 69 | 169 | 0.9 | 1.7 | 0.00 | 0.00 | 0.00 | 49 | 1009.6 |
| 20260509193033 | 69 | 193 | 0.9 | 2.6 | 0.00 | 0.00 | 0.00 | 50 | 1009.6 |
| 20260509192530 | 70 | 162 | 0.9 | 3.5 | 0.00 | 0.00 | 0.00 | 52 | 1009.6 |
| 20260509192025 | 71 | 181 | 2.6 | 3.5 | 0.00 | 0.00 | 0.00 | 49 | 1009.7 |
| 20260509191519 | 72 | 96 | 1.7 | 2.6 | 0.00 | 0.00 | 0.00 | 47 | 1009.5 |
| 20260509191015 | 71 | 70 | 2.6 | 5.2 | 0.00 | 0.00 | 0.00 | 47 | 1009.9 |
| 20260509190512 | 71 | 155 | 1.7 | 3.5 | 0.00 | 0.00 | 0.00 | 48 | 1009.7 |
| 20260509190010 | 71 | 136 | 0.9 | 1.7 | 0.00 | 0.00 | 0.00 | 48 | 1009.9 |
| 20260509185507 | 71 | 98 | 0.0 | 3.5 | 0.00 | 0.00 | 0.00 | 48 | 1009.9 |
| 20260509185004 | 72 | 154 | 0.9 | 1.7 | 0.00 | 0.00 | 0.00 | 47 | 1009.9 |
| 20260509184503 | 72 | 94 | 3.5 | 3.5 | 0.00 | 0.00 | 0.00 | 45 | 1009.6 |
| 20260509183959 | 70 | 100 | 1.7 | 2.6 | 0.00 | 0.00 | 0.00 | 46 | 1010.0 |
| 20260509183458 | 72 | 170 | 2.6 | 5.2 | 0.00 | 0.00 | 0.00 | 48 | 1010.2 |
| 20260509182955 | 71 | 120 | 0.0 | 1.7 | 0.00 | 0.00 | 0.00 | 51 | 1010.1 |
| 20260509182451 | 71 | 6 | 0.0 | 1.7 | 0.00 | 0.00 | 0.00 | 46 | 1010.1 |
| 20260509181949 | 70 | 74 | 2.6 | 3.5 | 0.00 | 0.00 | 0.00 | 47 | 1010.1 |
| 20260509181447 | 70 | 45 | 1.7 | 1.7 | 0.00 | 0.00 | 0.00 | 53 | 1010.3 |
| 20260509180944 | 71 | 34 | 0.9 | 1.7 | 0.00 | 0.00 | 0.00 | 53 | 1010.6 |
| 20260509180439 | 69 | 161 | 0.0 | 0.9 | 0.00 | 0.00 | 0.00 | 55 | 1010.5 |
| 20260509175936 | 69 | 59 | 1.7 | 2.6 | 0.00 | 0.00 | 0.00 | 55 | 1010.7 |
| 20260509175433 | 69 | 86 | 2.6 | 3.5 | 0.00 | 0.00 | 0.00 | 55 | 1010.6 |
| 20260509174929 | 68 | 64 | 2.6 | 2.6 | 0.00 | 0.00 | 0.00 | 54 | 1010.7 |
| 20260509174425 | 67 | 177 | 0.9 | 2.6 | 0.00 | 0.00 | 0.00 | 57 | 1011.0 |
| 20260509173921 | 66 | 48 | 0.9 | 2.6 | 0.00 | 0.00 | 0.00 | 57 | 1010.9 |
| 20260509173421 | 66 | 17 | 1.7 | 6.1 | 0.00 | 0.00 | 0.00 | 59 | 1010.8 |
| 20260509172917 | 65 | 53 | 1.7 | 3.5 | 0.00 | 0.00 | 0.00 | 59 | 1011.1 |
| 20260509172414 | 65 | 70 | 4.3 | 6.1 | 0.00 | 0.00 | 0.00 | 61 | 1011.1 |
| 20260509171910 | 65 | 354 | 2.6 | 7.0 | 0.00 | 0.00 | 0.00 | 58 | 1011.3 |
| 20260509171407 | 65 | 109 | 5.2 | 6.1 | 0.00 | 0.00 | 0.00 | 64 | 1011.5 |
| 20260509170903 | 65 | 17 | 4.3 | 6.1 | 0.00 | 0.00 | 0.00 | 59 | 1011.4 |
| 20260509170358 | 64 | 114 | 3.5 | 7.0 | 0.00 | 0.00 | 0.00 | 61 | 1011.3 |
| 20260509165854 | 64 | 64 | 4.3 | 5.2 | 0.00 | 0.00 | 0.00 | 63 | 1011.4 |
| 20260509165348 | 64 | 58 | 3.5 | 6.1 | 0.00 | 0.00 | 0.00 | 63 | 1011.8 |
| 20260509164839 | 63 | 86 | 3.5 | 5.2 | 0.00 | 0.00 | 0.00 | 63 | 1011.6 |
| 20260509164335 | 64 | 98 | 3.5 | 5.2 | 0.00 | 0.00 | 0.00 | 63 | 1011.7 |
| 20260509163832 | 63 | 65 | 1.7 | 6.1 | 0.00 | 0.00 | 0.00 | 64 | 1011.9 |
| 20260509163328 | 63 | 81 | 5.2 | 6.1 | 0.00 | 0.00 | 0.00 | 64 | 1011.5 |
| 20260509162827 | 63 | 60 | 7.0 | 7.0 | 0.00 | 0.00 | 0.00 | 62 | 1011.8 |
| 20260509162320 | 64 | 76 | 3.5 | 5.2 | 0.00 | 0.00 | 0.00 | 58 | 1011.8 |
| 20260509161817 | 64 | 67 | 2.6 | 5.2 | 0.00 | 0.00 | 0.00 | 57 | 1011.8 |
| 20260509161314 | 64 | 83 | 1.7 | 5.2 | 0.00 | 0.00 | 0.00 | 54 | 1011.7 |
| 20260509160809 | 64 | 89 | 1.7 | 3.5 | 0.00 | 0.00 | 0.00 | 54 | 1011.8 |
| 20260509160305 | 64 | 70 | 3.5 | 6.1 | 0.00 | 0.00 | 0.00 | 54 | 1011.5 |
| 20260509155801 | 64 | 63 | 2.6 | 6.1 | 0.00 | 0.00 | 0.00 | 54 | 1011.6 |
| 20260509155257 | 64 | 85 | 3.5 | 5.2 | 0.00 | 0.00 | 0.00 | 56 | 1011.6 |
| 20260509154753 | 65 | 14 | 3.5 | 5.2 | 0.00 | 0.00 | 0.00 | 53 | 1011.4 |
| 20260509154250 | 65 | 45 | 2.6 | 5.2 | 0.00 | 0.00 | 0.00 | 52 | 1011.4 |
| 20260509153747 | 65 | 16 | 2.6 | 6.1 | 0.00 | 0.00 | 0.00 | 51 | 1011.5 |
| 20260509153243 | 64 | 29 | 2.6 | 6.1 | 0.00 | 0.00 | 0.00 | 52 | 1011.5 |
| 20260509152740 | 64 | 68 | 1.7 | 3.5 | 0.00 | 0.00 | 0.00 | 52 | 1011.7 |
| 20260509152237 | 64 | 98 | 1.7 | 3.5 | 0.00 | 0.00 | 0.00 | 53 | 1011.8 |
| 20260509151734 | 64 | 80 | 1.7 | 3.5 | 0.00 | 0.00 | 0.00 | 54 | 1011.6 |
| 20260509151230 | 64 | 91 | 3.5 | 3.5 | 0.00 | 0.00 | 0.00 | 54 | 1011.6 |
| 20260509150728 | 64 | 56 | 1.7 | 6.1 | 0.00 | 0.00 | 0.00 | 54 | 1011.9 |
| 20260509150226 | 64 | 51 | 3.5 | 5.2 | 0.00 | 0.00 | 0.00 | 56 | 1012.0 |
| 20260509145723 | 64 | 120 | 4.3 | 5.2 | 0.00 | 0.00 | 0.00 | 58 | 1011.8 |
| 20260509145222 | 63 | 75 | 1.7 | 2.6 | 0.00 | 0.00 | 0.00 | 59 | 1011.8 |
| 20260509144719 | 62 | 59 | 2.6 | 5.2 | 0.00 | 0.00 | 0.00 | 56 | 1011.7 |
| 20260509144216 | 62 | 56 | 1.7 | 2.6 | 0.00 | 0.00 | 0.00 | 58 | 1012.0 |
| 20260509143714 | 61 | 64 | 3.5 | 5.2 | 0.00 | 0.00 | 0.00 | 60 | 1011.5 |
| 20260509143211 | 62 | 52 | 2.6 | 5.2 | 0.00 | 0.00 | 0.00 | 58 | 1011.9 |
| 20260509142706 | 62 | 101 | 3.5 | 3.5 | 0.00 | 0.00 | 0.00 | 62 | 1011.7 |
| 20260509142203 | 62 | 51 | 1.7 | 2.6 | 0.00 | 0.00 | 0.00 | 59 | 1011.8 |
| 20260509141658 | 61 | 77 | 3.5 | 5.2 | 0.00 | 0.00 | 0.00 | 59 | 1012.2 |
| 20260509141155 | 61 | 74 | 2.6 | 5.2 | 0.00 | 0.00 | 0.00 | 60 | 1012.1 |
| 20260509140652 | 61 | 65 | 3.5 | 6.1 | 0.00 | 0.00 | 0.00 | 62 | 1012.2 |
| 20260509140150 | 59 | 58 | 1.7 | 5.2 | 0.00 | 0.00 | 0.00 | 62 | 1012.5 |
| 20260509135647 | 59 | 58 | 1.7 | 3.5 | 0.00 | 0.00 | 0.00 | 64 | 1012.4 |
| 20260509135145 | 59 | 47 | 3.5 | 3.5 | 0.00 | 0.00 | 0.00 | 64 | 1012.3 |
| 20260509134641 | 58 | 54 | 1.7 | 2.6 | 0.00 | 0.00 | 0.00 | 66 | 1012.3 |
| 20260509134139 | 57 | 45 | 0.0 | 1.7 | 0.00 | 0.00 | 0.00 | 69 | 1012.5 |
| 20260509133636 | 57 | 43 | 0.9 | 0.9 | 0.00 | 0.00 | 0.00 | 71 | 1012.4 |
| 20260509133133 | 57 | 60 | 2.6 | 2.6 | 0.00 | 0.00 | 0.00 | 72 | 1012.3 |
| 20260509132631 | 57 | 59 | 0.0 | 0.9 | 0.00 | 0.00 | 0.00 | 74 | 1012.3 |
| 20260509132130 | 57 | 163 | 0.0 | 0.0 | 0.00 | 0.00 | 0.00 | 73 | 1012.3 |
| 20260509131625 | 57 | 190 | 0.0 | 0.0 | 0.00 | 0.00 | 0.00 | 75 | 1012.3 |
| 20260509131123 | 55 | 214 | 0.0 | 0.0 | 0.00 | 0.00 | 0.00 | 78 | 1012.2 |
| 20260509130618 | 54 | 254 | 0.0 | 0.0 | 0.00 | 0.00 | 0.00 | 78 | 1012.2 |
| 20260509130115 | 54 | 173 | 0.0 | 0.9 | 0.00 | 0.00 | 0.00 | 80 | 1012.1 |
| 20260509125611 | 54 | 162 | 0.0 | 0.0 | 0.00 | 0.00 | 0.00 | 83 | 1012.2 |
| 20260509125108 | 53 | 196 | 0.9 | 1.7 | 0.00 | 0.00 | 0.00 | 82 | 1012.1 |
| 20260509124604 | 53 | 345 | 0.0 | 0.0 | 0.00 | 0.00 | 0.00 | 81 | 1012.2 |
| 20260509124102 | 53 | 278 | 0.0 | 0.0 | 0.00 | 0.00 | 0.00 | 81 | 1012.2 |
| 20260509123600 | 53 | 252 | 0.0 | 0.9 | 0.00 | 0.00 | 0.00 | 83 | 1012.4 |
| 20260509123056 | 52 | 234 | 0.0 | 0.0 | 0.00 | 0.00 | 0.00 | 85 | 1012.2 |
| 20260509122552 | 52 | 246 | 0.0 | 0.9 | 0.00 | 0.00 | 0.00 | 86 | 1012.4 |
| 20260509122050 | 52 | 273 | 0.9 | 0.9 | 0.00 | 0.00 | 0.00 | 87 | 1012.3 |
| 20260509121546 | 51 | 254 | 0.0 | 0.9 | 0.00 | 0.00 | 0.00 | 86 | 1012.5 |
| 20260509121048 | 51 | 275 | 0.9 | 0.9 | 0.00 | 0.00 | 0.00 | 87 | 1012.2 |
| 20260509120542 | 51 | 269 | 0.0 | 0.9 | 0.00 | 0.00 | 0.00 | 87 | 1012.3 |
| 20260509120040 | 51 | 142 | 0.0 | 0.0 | 0.00 | 0.00 | 0.00 | 87 | 1012.2 |
| 20260509115536 | 51 | 151 | 0.0 | 0.9 | 0.00 | 0.00 | 0.00 | 86 | 1012.3 |
| 20260509115034 | 51 | 193 | 0.0 | 0.0 | 0.00 | 0.00 | 0.00 | 87 | 1012.3 |
| 20260509114532 | 50 | 199 | 0.0 | 0.0 | 0.00 | 0.00 | 0.00 | 87 | 1012.3 |
| 20260509114031 | 50 | 277 | 0.0 | 0.0 | 0.00 | 0.00 | 0.00 | 87 | 1012.3 |
| 20260509113529 | 50 | 317 | 0.0 | 0.9 | 0.00 | 0.00 | 0.00 | 86 | 1012.3 |
| 20260509113026 | 50 | 93 | 0.0 | 0.0 | 0.00 | 0.00 | 0.00 | 87 | 1012.2 |
| 20260509112522 | 50 | 87 | 0.0 | 0.9 | 0.00 | 0.00 | 0.00 | 87 | 1012.1 |
| 20260509112019 | 50 | 78 | 0.0 | 0.9 | 0.00 | 0.00 | 0.00 | 87 | 1012.0 |
| 20260509111517 | 50 | 84 | 0.0 | 0.0 | 0.00 | 0.00 | 0.00 | 89 | 1011.8 |
| 20260509111014 | 50 | 61 | 0.9 | 0.9 | 0.00 | 0.00 | 0.00 | 89 | 1012.1 |
| 20260509110510 | 50 | 89 | 1.7 | 1.7 | 0.00 | 0.00 | 0.00 | 89 | 1011.9 |
| 20260509110007 | 49 | 13 | 0.0 | 0.9 | 0.00 | 0.00 | 0.00 | 89 | 1011.9 |
| 20260509105506 | 49 | 358 | 0.0 | 0.9 | 0.00 | 0.00 | 0.00 | 90 | 1011.7 |
| 20260509105003 | 49 | 280 | 0.0 | 0.0 | 0.00 | 0.00 | 0.00 | 92 | 1011.9 |
| 20260509104459 | 49 | 272 | 0.0 | 0.0 | 0.00 | 0.00 | 0.00 | 92 | 1011.8 |
| 20260509103957 | 49 | 266 | 0.0 | 0.9 | 0.00 | 0.00 | 0.00 | 92 | 1011.7 |
| 20260509103454 | 49 | 261 | 0.0 | 0.9 | 0.00 | 0.00 | 0.00 | 91 | 1011.8 |
| 20260509102952 | 49 | 99 | 0.0 | 0.0 | 0.00 | 0.00 | 0.00 | 90 | 1011.4 |
| 20260509102449 | 49 | 110 | 0.0 | 0.0 | 0.00 | 0.00 | 0.00 | 91 | 1011.7 |
| 20260509101945 | 49 | 94 | 0.0 | 0.0 | 0.00 | 0.00 | 0.00 | 91 | 1011.5 |
| 20260509101442 | 49 | 74 | 0.0 | 0.9 | 0.00 | 0.00 | 0.00 | 90 | 1011.5 |
| 20260509100939 | 49 | 76 | 0.9 | 0.9 | 0.00 | 0.00 | 0.00 | 91 | 1011.5 |
| 20260509100437 | 49 | 92 | 0.9 | 0.9 | 0.00 | 0.00 | 0.00 | 91 | 1011.4 |
| 20260509095933 | 49 | 94 | 0.9 | 0.9 | 0.00 | 0.00 | 0.00 | 91 | 1011.6 |
| 20260509095430 | 49 | 134 | 0.0 | 0.0 | 0.00 | 0.00 | 0.00 | 90 | 1011.5 |
| 20260509094927 | 49 | 152 | 0.0 | 0.0 | 0.00 | 0.00 | 0.00 | 92 | 1011.4 |
| 20260509094423 | 49 | 161 | 0.0 | 0.0 | 0.00 | 0.00 | 0.00 | 91 | 1011.4 |
| 20260509093922 | 49 | 189 | 0.0 | 0.0 | 0.00 | 0.00 | 0.00 | 90 | 1011.6 |
| 20260509093418 | 49 | 189 | 0.0 | 0.0 | 0.00 | 0.00 | 0.00 | 88 | 1011.7 |
| 20260509092917 | 49 | 218 | 0.0 | 0.0 | 0.00 | 0.00 | 0.00 | 90 | 1011.8 |
| 20260509092414 | 48 | 218 | 0.0 | 0.0 | 0.00 | 0.00 | 0.00 | 89 | 1011.7 |
| 20260509091913 | 48 | 216 | 0.0 | 0.0 | 0.00 | 0.00 | 0.00 | 90 | 1011.6 |
| 20260509091409 | 48 | 212 | 0.0 | 0.0 | 0.00 | 0.00 | 0.00 | 91 | 1011.4 |
| 20260509090906 | 48 | 212 | 0.0 | 0.0 | 0.00 | 0.00 | 0.00 | 92 | 1011.6 |
| 20260509090403 | 48 | 220 | 0.0 | 0.0 | 0.00 | 0.00 | 0.00 | 92 | 1011.6 |
| 20260509085901 | 48 | 187 | 0.0 | 0.0 | 0.00 | 0.00 | 0.00 | 92 | 1011.6 |
| 20260509085358 | 48 | 188 | 0.0 | 0.0 | 0.00 | 0.00 | 0.00 | 91 | 1011.6 |
| 20260509084854 | 48 | 244 | 0.0 | 0.0 | 0.00 | 0.00 | 0.00 | 91 | 1011.9 |
| 20260509084351 | 48 | 244 | 0.0 | 0.0 | 0.00 | 0.00 | 0.00 | 91 | 1011.7 |
| 20260509083849 | 49 | 224 | 0.0 | 0.0 | 0.00 | 0.00 | 0.00 | 91 | 1011.8 |
| 20260509083345 | 49 | 145 | 0.0 | 0.0 | 0.00 | 0.00 | 0.00 | 90 | 1011.6 |
| 20260509082842 | 49 | 145 | 0.0 | 0.0 | 0.00 | 0.00 | 0.00 | 89 | 1011.7 |
| 20260509082339 | 49 | 145 | 0.0 | 0.0 | 0.00 | 0.00 | 0.00 | 89 | 1011.7 |
| 20260509081836 | 49 | 146 | 0.0 | 0.0 | 0.00 | 0.00 | 0.00 | 89 | 1011.8 |
| 20260509081333 | 49 | 146 | 0.0 | 0.0 | 0.00 | 0.00 | 0.00 | 90 | 1012.1 |
| 20260509080831 | 49 | 161 | 0.0 | 0.0 | 0.00 | 0.00 | 0.00 | 90 | 1011.9 |
| 20260509080329 | 48 | 163 | 0.0 | 0.0 | 0.00 | 0.00 | 0.00 | 90 | 1011.9 |
| 20260509075827 | 48 | 188 | 0.0 | 0.0 | 0.00 | 0.00 | 0.00 | 90 | 1012.0 |
| 20260509075324 | 48 | 189 | 0.0 | 0.0 | 0.00 | 0.00 | 0.00 | 90 | 1012.0 |
| 20260509074821 | 48 | 189 | 0.0 | 0.0 | 0.00 | 0.00 | 0.00 | 90 | 1012.0 |
| 20260509074319 | 48 | 189 | 0.0 | 0.0 | 0.00 | 0.00 | 0.00 | 90 | 1011.8 |
| 20260509073814 | 48 | 189 | 0.0 | 0.0 | 0.00 | 0.00 | 0.00 | 91 | 1012.1 |
| 20260509073311 | 48 | 189 | 0.0 | 0.0 | 0.00 | 0.00 | 0.00 | 91 | 1012.0 |
| 20260509072808 | 48 | 191 | 0.0 | 0.0 | 0.00 | 0.00 | 0.00 | 89 | 1012.1 |
| 20260509072306 | 48 | 193 | 0.0 | 0.0 | 0.00 | 0.00 | 0.00 | 89 | 1012.0 |
| 20260509071801 | 48 | 248 | 0.0 | 0.0 | 0.00 | 0.00 | 0.00 | 89 | 1012.2 |
| 20260509071258 | 47 | 252 | 0.0 | 0.0 | 0.00 | 0.00 | 0.00 | 89 | 1012.1 |
| 20260509070755 | 48 | 252 | 0.0 | 0.0 | 0.00 | 0.00 | 0.00 | 89 | 1012.2 |
| 20260509070251 | 48 | 208 | 0.0 | 0.0 | 0.00 | 0.00 | 0.00 | 89 | 1012.3 |
| 20260509065748 | 48 | 240 | 0.0 | 0.0 | 0.00 | 0.00 | 0.00 | 88 | 1012.2 |
| 20260509065244 | 47 | 220 | 0.0 | 0.0 | 0.00 | 0.00 | 0.00 | 88 | 1012.3 |
| 20260509064741 | 47 | 254 | 0.0 | 0.0 | 0.00 | 0.00 | 0.00 | 87 | 1012.4 |
| 20260509064238 | 47 | 254 | 0.0 | 0.0 | 0.00 | 0.00 | 0.00 | 87 | 1012.3 |
| 20260509063736 | 47 | 248 | 0.0 | 0.0 | 0.00 | 0.00 | 0.00 | 87 | 1012.5 |
| 20260509063232 | 47 | 250 | 0.0 | 0.0 | 0.00 | 0.00 | 0.00 | 87 | 1012.6 |
| 20260509062729 | 47 | 131 | 0.0 | 0.0 | 0.00 | 0.00 | 0.00 | 87 | 1012.6 |
| 20260509062226 | 47 | 119 | 0.0 | 0.0 | 0.00 | 0.00 | 0.00 | 85 | 1012.7 |
| 20260509061723 | 48 | 133 | 0.0 | 0.0 | 0.00 | 0.00 | 0.00 | 86 | 1012.6 |
| 20260509061221 | 48 | 169 | 0.0 | 0.0 | 0.00 | 0.00 | 0.00 | 84 | 1012.7 |
| 20260509060718 | 49 | 339 | 0.0 | 0.0 | 0.00 | 0.00 | 0.00 | 83 | 1012.7 |
| 20260509060214 | 49 | 82 | 0.0 | 0.0 | 0.00 | 0.00 | 0.00 | 84 | 1012.6 |
| 20260509055710 | 49 | 94 | 0.0 | 0.0 | 0.00 | 0.00 | 0.00 | 84 | 1012.7 |
| 20260509055206 | 48 | 94 | 0.0 | 0.0 | 0.00 | 0.00 | 0.00 | 85 | 1012.7 |
| 20260509054703 | 49 | 83 | 0.0 | 0.9 | 0.00 | 0.00 | 0.00 | 84 | 1012.9 |
| 20260509054200 | 49 | 72 | 0.9 | 0.9 | 0.00 | 0.00 | 0.00 | 84 | 1012.7 |
| 20260509053659 | 49 | 275 | 0.0 | 0.0 | 0.00 | 0.00 | 0.00 | 82 | 1012.7 |
| 20260509053155 | 49 | 274 | 0.0 | 0.0 | 0.00 | 0.00 | 0.00 | 83 | 1012.8 |
| 20260509052653 | 49 | 274 | 0.0 | 0.0 | 0.00 | 0.00 | 0.00 | 83 | 1012.7 |
| 20260509052150 | 49 | 278 | 0.0 | 0.0 | 0.00 | 0.00 | 0.00 | 84 | 1012.7 |
| 20260509051648 | 48 | 255 | 0.0 | 0.0 | 0.00 | 0.00 | 0.00 | 86 | 1012.8 |
| 20260509051145 | 49 | 244 | 0.0 | 0.0 | 0.00 | 0.00 | 0.00 | 87 | 1012.8 |
| 20260509050642 | 49 | 229 | 0.0 | 0.0 | 0.00 | 0.00 | 0.00 | 86 | 1012.9 |
| 20260509050138 | 49 | 193 | 0.0 | 0.0 | 0.00 | 0.00 | 0.00 | 84 | 1012.9 |
| 20260509045636 | 50 | 194 | 0.0 | 0.0 | 0.00 | 0.00 | 0.00 | 82 | 1012.5 |
| 20260509045133 | 50 | 222 | 0.0 | 0.0 | 0.00 | 0.00 | 0.00 | 78 | 1012.7 |
| 20260509044630 | 50 | 292 | 0.0 | 0.0 | 0.00 | 0.00 | 0.00 | 78 | 1012.6 |
| 20260509044127 | 49 | 287 | 0.0 | 0.0 | 0.00 | 0.00 | 0.00 | 84 | 1012.7 |
| 20260509043623 | 49 | 247 | 0.0 | 0.0 | 0.00 | 0.00 | 0.00 | 84 | 1012.7 |
| 20260509043119 | 49 | 247 | 0.0 | 0.0 | 0.00 | 0.00 | 0.00 | 84 | 1012.6 |
| 20260509042616 | 49 | 258 | 0.0 | 0.0 | 0.00 | 0.00 | 0.00 | 83 | 1012.5 |
| 20260509042112 | 49 | 269 | 0.0 | 0.0 | 0.00 | 0.00 | 0.00 | 83 | 1012.5 |
| 20260509041609 | 49 | 270 | 0.0 | 0.0 | 0.00 | 0.00 | 0.00 | 81 | 1012.6 |
| 20260509041106 | 50 | 355 | 0.0 | 0.0 | 0.00 | 0.00 | 0.00 | 79 | 1012.7 |
| 20260509040605 | 50 | 355 | 0.0 | 0.0 | 0.00 | 0.00 | 0.00 | 78 | 1012.7 |
| 20260509040101 | 50 | 355 | 0.0 | 0.0 | 0.00 | 0.00 | 0.00 | 80 | 1012.7 |
| 20260509035558 | 50 | 355 | 0.0 | 0.9 | 0.00 | 0.00 | 0.00 | 82 | 1012.7 |
| 20260509035054 | 50 | 293 | 0.0 | 0.0 | 0.00 | 0.00 | 0.00 | 83 | 1012.7 |
| 20260509034553 | 50 | 284 | 0.9 | 1.7 | 0.00 | 0.00 | 0.00 | 83 | 1012.6 |
| 20260509034049 | 51 | 283 | 0.9 | 0.9 | 0.00 | 0.00 | 0.00 | 80 | 1012.6 |
| 20260509033547 | 51 | 122 | 0.0 | 0.0 | 0.00 | 0.00 | 0.00 | 77 | 1012.7 |
| 20260509033043 | 52 | 64 | 0.0 | 0.0 | 0.00 | 0.00 | 0.00 | 75 | 1012.8 |
| 20260509032541 | 52 | 63 | 0.0 | 0.0 | 0.00 | 0.00 | 0.00 | 76 | 1012.7 |
| 20260509032038 | 51 | 180 | 0.0 | 0.0 | 0.00 | 0.00 | 0.00 | 77 | 1012.7 |
| 20260509031535 | 52 | 192 | 0.0 | 0.0 | 0.00 | 0.00 | 0.00 | 76 | 1012.7 |
| 20260509031032 | 52 | 191 | 0.0 | 0.0 | 0.00 | 0.00 | 0.00 | 78 | 1012.7 |
| 20260509030531 | 52 | 254 | 0.0 | 0.9 | 0.00 | 0.00 | 0.00 | 77 | 1012.9 |
| 20260509030027 | 53 | 220 | 0.0 | 0.0 | 0.00 | 0.00 | 0.00 | 75 | 1012.8 |
| 20260509025523 | 53 | 270 | 0.9 | 0.9 | 0.00 | 0.00 | 0.00 | 72 | 1012.7 |
| 20260509025019 | 53 | 292 | 0.0 | 0.0 | 0.00 | 0.00 | 0.00 | 70 | 1012.9 |
| 20260509024515 | 53 | 49 | 0.0 | 0.0 | 0.00 | 0.00 | 0.00 | 73 | 1012.9 |
| 20260509024011 | 53 | 268 | 0.0 | 0.0 | 0.00 | 0.00 | 0.00 | 71 | 1012.8 |
| 20260509023509 | 53 | 266 | 0.0 | 0.0 | 0.00 | 0.00 | 0.00 | 75 | 1012.8 |
| 20260509023006 | 52 | 276 | 0.0 | 0.0 | 0.00 | 0.00 | 0.00 | 76 | 1012.9 |
| 20260509022502 | 53 | 269 | 0.0 | 1.7 | 0.00 | 0.00 | 0.00 | 76 | 1012.8 |
| 20260509022000 | 53 | 151 | 0.0 | 0.0 | 0.00 | 0.00 | 0.00 | 72 | 1012.9 |
| 20260509021457 | 54 | 158 | 0.0 | 0.9 | 0.00 | 0.00 | 0.00 | 69 | 1012.8 |
| 20260509020954 | 54 | 76 | 0.9 | 0.9 | 0.00 | 0.00 | 0.00 | 69 | 1012.8 |
| 20260509020452 | 55 | 123 | 0.0 | 0.0 | 0.00 | 0.00 | 0.00 | 68 | 1012.9 |
| 20260509015949 | 55 | 98 | 0.0 | 0.0 | 0.00 | 0.00 | 0.00 | 65 | 1012.6 |
| 20260509015448 | 55 | 99 | 0.0 | 0.0 | 0.00 | 0.00 | 0.00 | 64 | 1012.8 |
| 20260509014944 | 54 | 308 | 0.0 | 0.9 | 0.00 | 0.00 | 0.00 | 66 | 1012.7 |
| 20260509014441 | 53 | 333 | 0.0 | 0.9 | 0.00 | 0.00 | 0.00 | 70 | 1012.7 |
| 20260509013937 | 52 | 150 | 0.0 | 0.0 | 0.00 | 0.00 | 0.00 | 71 | 1012.7 |
| 20260509013434 | 53 | 208 | 0.0 | 0.0 | 0.00 | 0.00 | 0.00 | 66 | 1012.9 |
| 20260509012930 | 54 | 192 | 0.0 | 0.0 | 0.00 | 0.00 | 0.00 | 61 | 1012.8 |
| 20260509012426 | 54 | 313 | 0.0 | 0.9 | 0.00 | 0.00 | 0.00 | 61 | 1012.7 |
| 20260509011924 | 53 | 282 | 0.9 | 0.9 | 0.00 | 0.00 | 0.00 | 66 | 1012.7 |
| 20260509011421 | 53 | 262 | 0.0 | 0.0 | 0.00 | 0.00 | 0.00 | 63 | 1012.7 |
| 20260509010919 | 56 | 267 | 1.7 | 1.7 | 0.00 | 0.00 | 0.00 | 61 | 1012.6 |
| 20260509010416 | 56 | 0 | 0.9 | 1.7 | 0.00 | 0.00 | 0.00 | 57 | 1012.5 |
| 20260509005913 | 55 | 315 | 0.0 | 0.0 | 0.00 | 0.00 | 0.00 | 61 | 1012.7 |
| 20260509005411 | 56 | 163 | 0.9 | 1.7 | 0.00 | 0.00 | 0.00 | 61 | 1012.7 |
| 20260509004911 | 57 | 84 | 0.9 | 0.9 | 0.00 | 0.00 | 0.00 | 59 | 1012.6 |
| 20260509004407 | 57 | 64 | 0.9 | 0.9 | 0.00 | 0.00 | 0.00 | 57 | 1012.7 |
| 20260509003905 | 58 | 110 | 0.0 | 0.9 | 0.00 | 0.00 | 0.00 | 53 | 1012.5 |
| 20260509003403 | 60 | 197 | 0.9 | 1.7 | 0.00 | 0.00 | 0.00 | 54 | 1012.4 |
| 20260509002859 | 62 | 334 | 1.7 | 2.6 | 0.00 | 0.00 | 0.00 | 45 | 1012.5 |
| 20260509002357 | 61 | 306 | 1.7 | 2.6 | 0.00 | 0.00 | 0.00 | 47 | 1012.5 |
| 20260509001855 | 60 | 15 | 0.9 | 1.7 | 0.00 | 0.00 | 0.00 | 49 | 1012.4 |
| 20260509001350 | 61 | 97 | 0.0 | 0.9 | 0.00 | 0.00 | 0.00 | 49 | 1012.3 |
| 20260509000848 | 63 | 97 | 0.9 | 0.9 | 0.00 | 0.00 | 0.00 | 48 | 1012.2 |
| 20260509000348 | 64 | 150 | 0.9 | 0.9 | 0.00 | 0.00 | 0.00 | 47 | 1012.0 |
| 20260508235842 | 67 | 318 | 0.0 | 1.7 | 0.00 | 0.00 | 0.00 | 36 | 1011.9 |
| 20260508235339 | 67 | 326 | 0.9 | 2.6 | 0.00 | 0.00 | 0.00 | 36 | 1011.9 |
| 20260508234836 | 67 | 336 | 0.9 | 2.6 | 0.00 | 0.00 | 0.00 | 37 | 1011.8 |
| 20260508234332 | 67 | 320 | 1.7 | 1.7 | 0.00 | 0.00 | 0.00 | 37 | 1011.9 |
| 20260508233831 | 67 | 355 | 0.0 | 0.9 | 0.00 | 0.00 | 0.00 | 38 | 1012.0 |
| 20260508233330 | 67 | 356 | 0.9 | 1.7 | 0.00 | 0.00 | 0.00 | 38 | 1011.8 |
| 20260508232826 | 69 | 344 | 0.9 | 1.7 | 0.00 | 0.00 | 0.00 | 34 | 1011.9 |
| 20260508232323 | 69 | 349 | 1.7 | 2.6 | 0.00 | 0.00 | 0.00 | 32 | 1011.8 |
| 20260508231821 | 71 | 24 | 0.0 | 0.0 | 0.00 | 0.00 | 0.00 | 33 | 1011.6 |
| 20260508231317 | 71 | 309 | 0.9 | 0.9 | 0.00 | 0.00 | 0.00 | 32 | 1011.6 |
| 20260508230814 | 70 | 288 | 0.9 | 0.9 | 0.00 | 0.00 | 0.00 | 32 | 1011.6 |
| 20260508230310 | 70 | 289 | 1.7 | 3.5 | 0.00 | 0.00 | 0.00 | 33 | 1011.9 |
| 20260508225808 | 70 | 277 | 1.7 | 3.5 | 0.00 | 0.00 | 0.00 | 33 | 1011.7 |
| 20260508225306 | 70 | 337 | 2.6 | 3.5 | 0.00 | 0.00 | 0.00 | 31 | 1011.7 |
| 20260508224802 | 70 | 339 | 2.6 | 3.5 | 0.00 | 0.00 | 0.00 | 33 | 1011.7 |
| 20260508224300 | 70 | 319 | 4.3 | 7.0 | 0.00 | 0.00 | 0.00 | 31 | 1011.8 |
| 20260508223757 | 70 | 24 | 1.7 | 5.2 | 0.00 | 0.00 | 0.00 | 31 | 1011.8 |
| 20260508223255 | 70 | 308 | 4.3 | 6.1 | 0.00 | 0.00 | 0.00 | 32 | 1011.6 |
| 20260508222751 | 71 | 280 | 4.3 | 9.6 | 0.00 | 0.00 | 0.00 | 33 | 1011.8 |
| 20260508222249 | 72 | 288 | 1.7 | 3.5 | 0.00 | 0.00 | 0.00 | 31 | 1011.9 |
| 20260508221745 | 72 | 302 | 0.0 | 1.7 | 0.00 | 0.00 | 0.00 | 31 | 1011.9 |
| 20260508221241 | 71 | 278 | 2.6 | 3.5 | 0.00 | 0.00 | 0.00 | 32 | 1011.9 |
| 20260508220737 | 71 | 295 | 4.3 | 9.6 | 0.00 | 0.00 | 0.00 | 32 | 1011.9 |
| 20260508220234 | 70 | 260 | 1.7 | 7.0 | 0.00 | 0.00 | 0.00 | 33 | 1011.9 |
| 20260508215730 | 69 | 282 | 3.5 | 3.5 | 0.00 | 0.00 | 0.00 | 34 | 1011.8 |
| 20260508215227 | 69 | 300 | 1.7 | 3.5 | 0.00 | 0.00 | 0.00 | 32 | 1011.7 |
| 20260508214724 | 71 | 311 | 3.5 | 5.2 | 0.00 | 0.00 | 0.00 | 32 | 1012.1 |
| 20260508214222 | 72 | 260 | 6.1 | 12.2 | 0.00 | 0.00 | 0.00 | 32 | 1011.9 |
| 20260508213718 | 71 | 295 | 0.9 | 1.7 | 0.00 | 0.00 | 0.00 | 33 | 1011.9 |
| 20260508213214 | 73 | 260 | 2.6 | 6.1 | 0.00 | 0.00 | 0.00 | 31 | 1012.1 |
| 20260508212711 | 71 | 335 | 1.7 | 3.5 | 0.00 | 0.00 | 0.00 | 34 | 1012.1 |
| 20260508212208 | 71 | 291 | 3.5 | 3.5 | 0.00 | 0.00 | 0.00 | 33 | 1012.2 |
| 20260508211703 | 71 | 273 | 4.3 | 6.1 | 0.00 | 0.00 | 0.00 | 33 | 1011.9 |
| 20260508211159 | 71 | 310 | 6.1 | 7.8 | 0.00 | 0.00 | 0.00 | 33 | 1012.3 |
| 20260508210657 | 71 | 24 | 2.6 | 7.0 | 0.00 | 0.00 | 0.00 | 33 | 1012.3 |
| 20260508210154 | 70 | 289 | 4.3 | 8.7 | 0.00 | 0.00 | 0.00 | 32 | 1012.2 |
| 20260508205650 | 69 | 325 | 0.9 | 7.8 | 0.00 | 0.00 | 0.00 | 33 | 1012.3 |
| 20260508205147 | 68 | 177 | 0.0 | 6.1 | 0.00 | 0.00 | 0.00 | 34 | 1012.5 |
| 20260508204643 | 69 | 282 | 7.8 | 11.3 | 0.00 | 0.00 | 0.00 | 33 | 1012.6 |
| 20260508204139 | 69 | 275 | 2.6 | 7.8 | 0.00 | 0.00 | 0.00 | 34 | 1012.4 |
| 20260508203636 | 69 | 271 | 4.3 | 7.8 | 0.00 | 0.00 | 0.00 | 34 | 1012.6 |
| 20260508203132 | 68 | 309 | 1.7 | 6.1 | 0.00 | 0.00 | 0.00 | 33 | 1012.7 |
| 20260508202628 | 70 | 225 | 4.3 | 8.7 | 0.00 | 0.00 | 0.00 | 32 | 1012.7 |
| 20260508202125 | 68 | 290 | 1.7 | 7.8 | 0.00 | 0.00 | 0.00 | 35 | 1012.6 |
| 20260508201622 | 69 | 253 | 6.1 | 8.7 | 0.00 | 0.00 | 0.00 | 33 | 1012.6 |